METEOSAT-10 (MSG-3)

Last updated on Oct. 24, 2020, 5:54 a.m. UTC

1 38552U 12035B   20297.90435438  .00000045  00000-0  00000-0 0  9999
2 38552   1.2988 348.7663 0000968 213.9404 164.8606  1.00273330 30188
UTC
Height (km)
Latitude
Longitude
Inclination
Orbital Period
UTC large
Height (km)
Speed (km/s)
/
Latitude / Longitude
Inclination (degrees)
Orbital Period (minutes)
Azimuth
Elevation
Range (km)
Doppler Factor
iOS Compass Heading
iOS Angle

Next 30 passes for location: Hong Kong

Rise time Rise Azimuth (degrees) Set time Set Azimuth (degrees) Duration Max altitude (degrees)

No matching passes for this satellites